Погода в Лаукуве

Погода в Лаукуве : погода сейчас, прогноз погоды и архив. Всё, что Вы хотите узнать о погоде в Лаукуве!

Поиск расширенной информации на нашем сайте:

Другие новости

Новости СМИ2

Главная страница сайта

Новости сайта

03.07.2017

Напоминаем, что на нашем специализированном сайте Метеоцентр.Азия вы можете получить высокодетализированные автоматические прогнозы погоды по пунктам России, СНГ и мира в авиационном формате (включающие направление и скорость ветра, видимость, явления погоды, количество и форму облачности, нижнюю и верхнюю границу облачности).

Рекомендуем: монтаж система вентиляции торгового центра

Погода в Лаукуве - сегодня

Время (UTC), дата Ветер
(°,м/с) 
Видим.   Явления Облачность Т
(°С)
Тd
(°С)
f(%) Тe
(°С)
Pmin
(гПа)
dP
(гПа)
Po
(мм)
O2
(г/м3)
Тmin Tmax R s Состояние
почвы
00 16.02.18 160 (Ю) 4-5{08}  7000 м  дымка  10/10 240 м 
[St]
-6.1 -8 86 -9  1023.7  -1.1  752  311         
03 16.02.18 130 (ЮВ) 5-6{07}  6000 м  слаб. снег  10/0 средняя 
[Ac As]
-6.1 -7.2 92 -10  1022.1  -1.5  750  309           
06 16.02.18 140 (ЮВ) 4-7{07}  5000 м  слаб. снег  10/10 240 м 
[Frnb|Ns]
-5.5 -6.6 92 -9  1020.9  -1.2  750  308  -6.5    0.0  неравномерный
сухой снег
100% 
09 16.02.18 130 (ЮВ) 5-7{08}  4500 м  дымка{снег}  10/10 180 м 
[St]
-4.4 -5.3 93 -8  1020.3  -0.5  749  307           
12 16.02.18 160 (Ю) 4-5{07}  5000 м  дымка{снег}  10/10 270 м 
[St]
-3 -5 86 -6  1019.3  -0.8  749  306      0.0   
15 16.02.18 120 (ЮВ) 3-3{05}  2200 м  слаб. снег  10/0 средняя 
[As op]
-2.9 -4.2 91 -5  1019.1  -0.2  748  304           
18 16.02.18 130 (ЮВ) 2-3{03}  2100 м  слаб. снег  10/0 средняя 
[As op]
-3.5 -4.3 94 -5  1019.1  -0.1  748  305    -2.7  0.5   
21 16.02.18 140 (ЮВ) 1-3{03}  1900 м  слаб. снег  10/10 100 м 
[Frnb|Ns]
-2.7 -3 98 -2  1018.6  -0.4  748  304           
00 17.02.18 140 (ЮВ) 2-3{04}  0700 м  переохл. туман{снег} [диам. изморози 1 мм]  ?/?  
-2.2 -2.2 100 -3  1017.9  -0.7  748  304       
03 17.02.18 080 (В) 2-2{04}  1200 м  слаб. снег{туман} [диам. изморози 1 мм]  10/10 480 м 
[Ns]
-1.6 -1.6 100 -3  1016.6  -1.2  747  302           
06 17.02.18 360 (С) 2-4{04}  1000 м  в посл. час снег{туман} [диам. изморози 0 мм]  10/10 60 м 
[St]
-2.3 -2.6 98 -3  1017.5  0.8  747  303  -3.7    12  неравномерный
сухой снег
100% 
09 17.02.18 340 (С) 3-5{05}  3800 м  дымка{туман} [диам. изморози 0 мм]  10/10 210 м 
[St]
-2.8 -3.5 95 -5  1018.7  1.2  748  304           
12 17.02.18 320 (СЗ) 4-6{06}  6000 м  дымка{туман}  10/10 500 м 
[Sc]
-1.8 -4 85 -5  1019.6  0.9  749  304        11   
15 17.02.18 350 (С) 3-5{06}  9000 м  дымка  10/10 450 м 
[Sc]
-2.6 -5.6 80 -5  1020.3  0.7  749  305           
18 17.02.18 320 (СЗ) 3-5{07}  14000 м    10/10 500 м 
[Sc]
-2.9 -5.6 82 -5  1021  0.6  750  305    -1.7    11   
21 17.02.18 310 (СЗ) 3-4{05}  11000 м  слаб. снег  10/10 360 м 
[Frnb|Ns]
-3.1 -4.5 90 -5  1021.7  0.7  750  305           
00 18.02.18 360 (С) 2-4{06}  9000 м  в посл. час снег  10/10 240 м 
[St]
-4.1 -6 87 -5  1022.6  0.8  751  308      0.0  11   
03 18.02.18 320 (СЗ) 3-5{07}  8000 м  в посл. час снег  10/10 540 м 
[Sc]
-4.5 -6.8 84 -7  1023.7  752  308           
06 18.02.18 350 (С) 4-7{07}  10 км  слаб. снег  10/10 480 м 
[Ns]
-4.2 -6.8 82 -7  1024.8  1.1  753  308  -4.6    0.0  11  неравномерный
сухой снег
100% 
09 18.02.18 320 (СЗ) 2-4{07}  16000 м  {снег}  1/0 верхняя 
[Ci sp]
-4.3 -7.4 79 -6  1025.5  0.7  753  308           
12 18.02.18 280 (З) 3-4{05}  18000 м  {снег}  9/9 1410 м 
[Sc]
-2.2 -7.2 69 -4  1025.9  0.6  754  307      0.0  10   
15 18.02.18 260 (З) 4-6{08}  20000 м  слаб. ливневой снег  9/8 800 м кучево-дожд., средняя 
[Cb cap|Ac trans]
-1.5 -5.1 76 -4  1025.4  -0.5  753  305           
18 18.02.18 270 (З) 3-5{08}  18000 м  {ливн. осадки}  9/9 800 м 
[Sc]
-2.4 -3.4 93 -4  1025.2  -0.2  753  306    -1.5  0.0  10   
21 18.02.18 250 (З) 3-4{07}  13000 м  слаб. снег  10/10 500 м 
[Ns]
-2.1 -3 94 -4  1024.5  -0.7  752  305           
00 19.02.18 250 (З) 2-3{05}  6000 м  слаб. снег  10/10 60 м 
[Frnb|Ns]
-2.3 -2.9 96 -3  1023.9  -0.6  752  306      0.0  10   
Время (UTC), дата Ветер
(°,м/с) 
Видим.   Явления Облачность Т
(°С)
Тd
(°С)
f(%) Тe
(°С)
Pmin
(гПа)
dP
(гПа)
Po
(мм)
O2
(г/м3)
Тmin Tmax R s Состояние
почвы

Для получения пояснительной информации подведите курсор к названию столбца.

ПОГОДА в Лаукуве - архив

Всё, что Вы хотите узнать о погоде в Лаукуве - удобно и подробно!

Выберите нужную дату (начиная с 1 января 2015* года) и нажмите кнопку "Найти".
Будут отображены архивные сводки погоды по пункту Лаукува, начиная с указанной даты.


Отображать данные в формате CSV (для использования в таблицах Excel)


Внимание! Наш архив погоды предназначен исключительно для личного некоммерческого использования в познавательных целях. Если Вам необходимы официальные справки о состоянии погоды (для производственных, юридических, коммерческих и т.п. целей), обращайтесь в органы Росгидромета.

*Примечание: данная дата относится к архиву по метеостанциям СССР (Россия, СНГ, Балтия).
Архив по метеостанциям Зарубежной Европы и Азии (кроме Китая) хранится 10 дней, по другим регионам земного шара (Китай, Африка, Америка, Австралия, Океания) - 1 день.

Лаукува - район местоположения метеостанции


Название, широта, долгота, высота метеостанции:
Лаукува 55.6°ш. 22.2°д. 166 м над ур. моря [Литва]

Дополнительная информация

В oтличие oт бoльшинства пoгoдных сайтoв мы публикуем пoдрoбную метеoинфoрмацию в детальнoм прoфессиoнальнoм фoрмате.

Характеристики температуры и влажнoсти вoздуха измеряются на высoте 2 м в тени вдали oт зданий и деревьев.
Скoрoсть ветра измеряется на высoте 10 м (на урoвне рoста челoвека скoрoсть ветра ниже в 1.5-2 раза). Если метеoстанция нахoдится в гoрoде или в лесу, тo скoрoсть ветра занижена на 2-4 м/с пo сравнению с oткрытым местoм. Скoрoсть ветра над акватoриями крупных рек и oзёр, а также на вершинах хoлмoв на 2-5 м/с выше, чем в oбычных услoвиях.
Атмoсфернoе давление в разных тoчках местнoсти мoжет значительнo oтличаться oт давления на метеoстанции, в зависимoсти oт услoвий рельефа (при пoдъёме на 10 м давление пoнижается примернo на 1 мм рт.ст.).